Flag for Canada Weather past 2 weeks in Brandon, Manitoba, Canada

Now
34 °F

Clear.


Feels Like: 27 °F
Forecast: 35 / 66 °F
Wind: 8 mph from Northwest

Location: Brandon

Current Time: Apr 27, 2015 at 11:58:49 PM

Latest Report: Apr 27, 2015 at 11:00 PM


Visibility: 15 mi

Pressure: 30.31 "Hg

Humidity: 81%

Dew point: 28 °F

Location of BrandonLocation

Historic Weather in Brandon — Graph

°F

Brandon temperature yesterday

Maximum temperature yesterday: 55 °F (at 6:00 PM)
Minimum temperature yesterday: 45 °F (at 12:00 AM)
Average temperature yesterday: 49 °F

Past Weeks' High & Low Weather Summary

 TemperatureHumidityPressure
High70 °F (Apr 15, 3:00 PM)100% (Apr 25, 7:00 AM)30.33 "Hg (Apr 25, 7:00 AM)
Low19 °F (Apr 23, 4:00 AM)17% (Apr 22, 5:00 PM)29.73 "Hg (Apr 15, 4:00 AM)
Average44 °F59%30.00 "Hg
* Reported Apr 12 10:00 PM — Apr 27 10:00 PM, Brandon, Weather by CustomWeather, © 2015

Note: Actual official high and low records may vary slightly from our data, if they occured in-between our weather recording intervals... More about our weather records

Advertising

Brandon weather history for previous 24 hours

 ConditionsComfort  
Time TempWeatherWind HumidityBarometerVisibility
10:00 PM
Mon, Apr 27
39 °FClear.7 mph65%30.30 "Hg15 mi
9:00 PM46 °FPassing clouds.7 mph57%30.28 "Hg15 mi
8:00 PM55 °FPassing clouds.8 mph47%30.27 "Hg15 mi
7:00 PM57 °FScattered clouds.12 mph41%30.27 "Hg15 mi
6:00 PM57 °FPartly sunny.9 mph41%30.27 "Hg15 mi
5:00 PM55 °FPartly sunny.12 mph55%30.28 "Hg15 mi
4:00 PM54 °FBroken clouds.13 mph58%30.29 "Hg15 mi
3:00 PM50 °FMostly cloudy.9 mph67%30.31 "Hg15 mi
2:00 PM48 °FLight rain. Overcast.8 mph71%30.32 "Hg15 mi
1:00 PM46 °FOvercast.10 mph76%30.32 "Hg15 mi
12:00 PM45 °FLight rain. Mostly cloudy.14 mph81%30.33 "Hg15 mi
11:00 AM43 °FLight rain. Overcast.14 mph87%30.33 "Hg15 mi
10:00 AM43 °FQuite cool.13 mph87%30.32 "Hg10 mi
9:00 AM41 °FLight rain. Overcast.12 mph93%30.31 "Hg15 mi
8:00 AM41 °FMore clouds than sun.13 mph81%30.29 "Hg15 mi
7:00 AM41 °FMostly cloudy.8 mph81%30.28 "Hg15 mi
6:00 AM39 °FOvercast.8 mph87%30.27 "Hg15 mi
5:00 AM41 °FOvercast.8 mph81%30.26 "Hg15 mi
4:00 AM41 °FOvercast.7 mph81%30.25 "Hg15 mi
3:00 AM41 °FOvercast.8 mph81%30.24 "Hg15 mi
2:00 AM43 °FOvercast.8 mph76%30.23 "Hg15 mi
1:00 AM43 °FOvercast.7 mph81%30.23 "Hg15 mi
12:00 AM46 °FOvercast.9 mph71%30.21 "Hg15 mi
11:00 PM
Sun, Apr 26
46 °FOvercast.7 mph76%30.19 "Hg15 mi
Weather by CustomWeather, © 2015

See weather overviewHow to use our weather pages